Location: Boiro
(42.6475°N, 8.8834°W)
Time: 04:06:43
(UTC+01:00)

Vanguard 2 - Pass Details

Date: 07 December 2021
Orbit: 553 x 2936 km, 32.9° (Epoch: 20 January)

Event Time Altitude Azimuth Distance (km) Brightness Sun altitude
Rises 13:43:51 0° 226° (SW) 2,710 11.1 24.6°
Reaches altitude 10° 13:46:29 10° 206° (SSW) 1,861 11.0 24.5°
Maximum altitude 13:49:22 18° 160° (SSE) 1,514 10.5 24.5°
Drops below altitude 10° 13:52:42 10° 117° (ESE) 2,214 10.2 24.4°
Sets 13:56:14 0° 99° (E) 3,462 10.9 24.3°
